Location: Zagreb
(45.8000°N, 16.0000°E)
Time: 15:15:17
(UTC+02:00)

Transit 2A Rocket - Pass Details

Date: 12 August 2022
Orbit: 593 x 907 km, 66.7° (Epoch: 25 September)

Event Time Altitude Azimuth Distance (km) Brightness Sun altitude
Rises 02:39:49 0° 335° (NNW) 2,846 8.5 -25.2°
Reaches altitude 10° 02:42:28 10° 351° (N) 1,955 7.8 -25.0°
Maximum altitude 02:45:54 22° 43° (NE) 1,359 7.0 -24.7°
Drops below altitude 10° 02:49:27 10° 95° (E) 2,030 7.5 -24.4°
Sets 02:52:15 0° 110° (ESE) 2,986 8.2 -24.2°
